GW6369 Weather Reports


Display with metric or nautical units.
time (UTC)temp
F
wind
direction
speed
MPH
gust
MPH
rain 1hr
in
rain 24hr
in
rain mn
in
humidity
%
barometer
mb
20260504193044 61 231 6.0 7.0 0.00 0.00 0.00 67 1010.6
20260504192543 62 207 6.0 9.0 0.00 0.00 0.00 65 1010.9
20260504192040 61 190 4.0 7.0 0.00 0.00 0.00 67 1010.9
20260504191538 61 133 8.0 11.0 0.00 0.00 0.00 66 1011.0
20260504191034 61 201 10.0 13.0 0.00 0.00 0.00 66 1011.1
20260504190531 61 232 3.0 4.0 0.00 0.00 0.00 66 1011.1
20260504190026 62 184 4.0 7.0 0.00 0.00 0.00 66 1011.2
20260504185524 62 199 8.0 13.0 0.00 0.00 0.00 64 1011.0
20260504185020 62 163 2.0 4.0 0.00 0.00 0.00 63 1011.1
20260504184515 63 198 5.0 7.0 0.00 0.00 0.00 62 1011.3
20260504184011 63 231 7.0 9.0 0.00 0.00 0.00 61 1011.5
20260504183509 63 198 5.0 7.0 0.00 0.00 0.00 62 1011.4
20260504183007 63 302 2.0 3.0 0.00 0.00 0.00 62 1011.3
20260504182503 62 154 6.0 9.0 0.00 0.00 0.00 63 1011.5
20260504182000 62 262 4.0 4.0 0.00 0.00 0.00 64 1011.4
20260504181457 62 208 9.0 15.0 0.00 0.00 0.00 62 1011.5
20260504180956 62 184 5.0 6.0 0.00 0.00 0.00 63 1011.5
20260504180455 62 200 5.0 10.0 0.00 0.00 0.00 63 1011.6
20260504175952 63 257 6.0 9.0 0.00 0.00 0.00 62 1011.6
20260504175449 63 274 6.0 7.0 0.00 0.00 0.00 61 1011.8
20260504174947 62 178 4.0 4.0 0.00 0.00 0.00 64 1011.7
20260504174444 62 264 5.0 7.0 0.00 0.00 0.00 62 1011.7
20260504173942 62 93 3.0 4.0 0.00 0.00 0.00 63 1011.8
20260504173437 62 229 6.0 9.0 0.00 0.00 0.00 62 1011.7
20260504172935 63 196 3.0 4.0 0.00 0.00 0.00 63 1011.6
20260504172431 63 192 3.0 4.0 0.00 0.00 0.00 65 1012.0
20260504171928 62 274 4.0 6.0 0.00 0.00 0.00 64 1012.0
20260504171425 62 230 5.0 7.0 0.00 0.00 0.00 64 1012.0
20260504170922 61 306 2.0 3.0 0.00 0.00 0.00 65 1011.9
20260504170418 61 147 5.0 7.0 0.00 0.00 0.00 64 1012.2
20260504160337 61 60 3.0 4.0 0.00 0.00 0.00 63 1012.8
20260504150802 62 226 3.0 4.0 0.00 0.00 0.00 57 1013.4
20260504150258 62 209 3.0 4.0 0.00 0.00 0.00 56 1013.6
20260504141228 60 223 3.0 4.0 0.00 0.00 0.00 58 1013.6
20260504140725 60 307 6.0 9.0 0.00 0.00 0.00 55 1013.6
20260504140220 61 251 7.0 9.0 0.00 0.00 0.00 51 1013.5
20260504130649 57 258 2.0 2.0 0.00 0.00 0.00 59 1013.8
20260504130145 57 194 2.0 3.0 0.00 0.00 0.00 59 1014.0
20260504120110 54 225 5.0 6.0 0.00 0.00 0.00 62 1014.2
20260504110537 52 176 2.0 3.0 0.00 0.00 0.00 63 1014.2
20260504100459 49 173 0.0 0.0 0.00 0.00 0.00 69 1013.9
20260504081857 51 241 3.0 4.0 0.00 0.00 0.00 57 1013.3
20260504081354 51 283 4.0 4.0 0.00 0.00 0.00 58 1013.3
20260504080850 50 256 1.0 1.0 0.00 0.00 0.00 60 1013.2
20260504080347 50 256 1.0 1.0 0.00 0.00 0.00 60 1013.2
20260504070315 52 280 4.0 4.0 0.00 0.00 0.00 55 1012.8
20260504060235 52 208 4.0 8.0 0.00 0.00 0.00 54 1012.8
20260504050703 51 259 3.0 3.0 0.00 0.00 0.00 64 1012.5
20260504050200 51 198 1.0 1.0 0.00 0.00 0.00 63 1012.5
20260504045658 51 207 1.0 2.0 0.00 0.00 0.00 63 1012.7
20260504045157 51 237 2.0 3.0 0.00 0.00 0.00 64 1012.5
20260504044655 51 236 2.0 3.0 0.00 0.00 0.00 64 1012.5
20260504044152 51 240 2.0 2.0 0.00 0.00 0.00 63 1012.5
20260504043649 51 200 1.0 1.0 0.00 0.00 0.00 61 1012.2
20260504043146 52 255 2.0 2.0 0.00 0.00 0.00 59 1012.5
20260504042644 52 253 2.0 3.0 0.00 0.00 0.00 58 1012.5
20260504042140 52 268 2.0 4.0 0.00 0.00 0.00 59 1012.3
20260504041636 52 107 2.0 2.0 0.00 0.00 0.00 60 1012.3
20260504041132 52 219 3.0 3.0 0.00 0.00 0.00 60 1012.2
20260504040630 52 227 2.0 2.0 0.00 0.00 0.00 59 1012.2
20260504040126 52 214 1.0 1.0 0.00 0.00 0.00 58 1012.2
20260504035623 52 206 1.0 1.0 0.00 0.00 0.00 58 1012.2
20260504035120 52 232 2.0 3.0 0.00 0.00 0.00 60 1012.3
20260504034618 52 192 1.0 1.0 0.00 0.00 0.00 61 1012.2
20260504034114 52 241 2.0 3.0 0.00 0.00 0.00 62 1012.2
20260504033612 52 213 2.0 2.0 0.00 0.00 0.00 62 1012.2
20260504033109 52 258 2.0 2.0 0.00 0.00 0.00 61 1012.1
20260504032606 52 211 1.0 1.0 0.00 0.00 0.00 57 1012.1
20260504032103 53 192 0.0 1.0 0.00 0.00 0.00 55 1012.1
20260504031600 53 198 0.0 1.0 0.00 0.00 0.00 54 1012.3
20260504031056 53 167 0.0 1.0 0.00 0.00 0.00 53 1012.1
20260504030553 53 211 2.0 2.0 0.00 0.00 0.00 53 1012.3
20260504030049 52 207 1.0 2.0 0.00 0.00 0.00 56 1012.2
20260504025547 53 195 1.0 1.0 0.00 0.00 0.00 57 1012.2
20260504025043 53 206 2.0 2.0 0.00 0.00 0.00 58 1012.1
20260504024541 53 231 1.0 1.0 0.00 0.00 0.00 60 1012.1
20260504024037 53 254 1.0 1.0 0.00 0.00 0.00 60 1012.1
20260504023534 53 172 0.0 1.0 0.00 0.00 0.00 57 1012.2
20260504023030 53 214 1.0 2.0 0.00 0.00 0.00 54 1012.1
20260504022526 53 190 0.0 1.0 0.00 0.00 0.00 54 1012.2
20260504022023 53 252 3.0 3.0 0.00 0.00 0.00 55 1012.2
20260504021520 52 259 2.0 6.0 0.00 0.00 0.00 56 1012.0
20260504021017 52 194 1.0 1.0 0.00 0.00 0.00 57 1012.1
20260504020514 52 224 1.0 1.0 0.00 0.00 0.00 56 1012.2
20260504020010 52 191 0.0 0.0 0.00 0.00 0.00 54 1012.1
20260504015507 52 186 0.0 0.0 0.00 0.00 0.00 54 1012.0
20260504015003 52 190 1.0 1.0 0.00 0.00 0.00 53 1012.1
20260504014459 51 171 0.0 0.0 0.00 0.00 0.00 52 1012.0
20260504013956 51 174 0.0 0.0 0.00 0.00 0.00 51 1011.9
20260504013454 51 176 0.0 0.0 0.00 0.00 0.00 50 1011.8
20260504012950 51 191 0.0 0.0 0.00 0.00 0.00 50 1011.7
20260504012448 51 174 0.0 0.0 0.00 0.00 0.00 48 1011.8
20260504011946 51 171 0.0 0.0 0.00 0.00 0.00 47 1011.8
20260504011442 51 164 0.0 0.0 0.00 0.00 0.00 44 1011.7
20260504010938 51 169 0.0 0.0 0.00 0.00 0.00 43 1011.5
20260504010434 52 169 0.0 0.0 0.00 0.00 0.00 42 1011.5
20260504005930 53 169 0.0 0.0 0.00 0.00 0.00 42 1011.4
20260504005427 53 176 0.0 0.0 0.00 0.00 0.00 39 1011.5
20260504004925 54 177 0.0 0.0 0.00 0.00 0.00 37 1011.4
20260504004422 55 177 0.0 0.0 0.00 0.00 0.00 36 1011.3
20260504003919 55 180 0.0 0.0 0.00 0.00 0.00 34 1011.1
20260504003415 55 182 0.0 0.0 0.00 0.00 0.00 34 1011.3
20260504002912 56 172 0.0 0.0 0.00 0.00 0.00 33 1011.0
20260504002409 56 221 0.0 0.0 0.00 0.00 0.00 32 1010.9
20260504001907 57 179 0.0 1.0 0.00 0.00 0.00 31 1010.7
20260504001404 57 188 1.0 1.0 0.00 0.00 0.00 30 1010.8
20260504000900 57 229 1.0 1.0 0.00 0.00 0.00 30 1010.7
20260504000358 57 271 1.0 2.0 0.00 0.00 0.00 30 1010.7
20260503235855 57 310 2.0 3.0 0.00 0.00 0.00 30 1010.7
20260503235353 58 339 1.0 1.0 0.00 0.00 0.00 29 1010.5
20260503234850 58 240 2.0 2.0 0.00 0.00 0.00 29 1010.5
20260503234348 58 313 2.0 3.0 0.00 0.00 0.00 28 1010.6
20260503233845 58 305 1.0 2.0 0.00 0.00 0.00 28 1010.4
20260503233341 58 343 4.0 6.0 0.00 0.00 0.00 28 1010.4
20260503232837 58 10 1.0 2.0 0.00 0.00 0.00 28 1010.4
20260503232335 59 228 2.0 2.0 0.00 0.00 0.00 28 1010.2
20260503231833 59 280 2.0 3.0 0.00 0.00 0.00 27 1010.3
20260503231330 59 341 2.0 4.0 0.00 0.00 0.00 27 1010.1
20260503230825 59 5 4.0 4.0 0.00 0.00 0.00 27 1010.2
20260503230323 59 216 5.0 8.0 0.00 0.00 0.00 27 1010.2
20260503225820 59 271 5.0 7.0 0.00 0.00 0.00 26 1010.1
20260503225316 60 327 4.0 4.0 0.00 0.00 0.00 26 1010.2
20260503224812 60 251 7.0 9.0 0.00 0.00 0.00 26 1010.2
20260503224310 60 231 6.0 15.0 0.00 0.00 0.00 26 1010.0
20260503223808 60 229 7.0 9.0 0.00 0.00 0.00 25 1010.0
20260503223305 60 244 3.0 4.0 0.00 0.00 0.00 26 1010.0
20260503222800 60 277 6.0 8.0 0.00 0.00 0.00 26 1010.0
20260503222259 60 322 5.0 7.0 0.00 0.00 0.00 26 1010.0
20260503221757 60 29 3.0 4.0 0.00 0.00 0.00 26 1010.1
20260503221255 60 264 5.0 7.0 0.00 0.00 0.00 26 1010.0
20260503220751 60 197 4.0 8.0 0.00 0.00 0.00 26 1009.9
20260503220248 60 34 4.0 6.0 0.00 0.00 0.00 27 1009.9
20260503215745 60 324 7.0 9.0 0.00 0.00 0.00 26 1010.0
20260503215242 60 244 8.0 10.0 0.00 0.00 0.00 26 1010.1
20260503214740 60 304 8.0 10.0 0.00 0.00 0.00 27 1010.0
20260503214236 60 175 9.0 14.0 0.00 0.00 0.00 26 1009.9
20260503213735 60 233 4.0 10.0 0.00 0.00 0.00 27 1009.8
20260503213232 60 265 4.0 7.0 0.00 0.00 0.00 27 1009.8
20260503212728 60 317 7.0 11.0 0.00 0.00 0.00 27 1009.9
20260503212226 60 275 9.0 14.0 0.00 0.00 0.00 26 1010.0
20260503211723 61 306 8.0 10.0 0.00 0.00 0.00 27 1009.8
20260503211219 60 333 3.0 6.0 0.00 0.00 0.00 28 1009.7
20260503210715 60 53 6.0 9.0 0.00 0.00 0.00 27 1009.6
20260503210212 60 318 9.0 17.0 0.00 0.00 0.00 28 1009.7
20260503205707 60 280 6.0 13.0 0.00 0.00 0.00 28 1009.6
20260503205204 59 300 8.0 11.0 0.00 0.00 0.00 28 1009.7
20260503204700 59 316 5.0 10.0 0.00 0.00 0.00 29 1009.7
20260503204158 59 320 6.0 10.0 0.00 0.00 0.00 29 1009.6
20260503203655 59 19 7.0 10.0 0.00 0.00 0.00 28 1009.8
20260503203153 59 308 8.0 14.0 0.00 0.00 0.00 28 1009.7
20260503202650 60 56 9.0 13.0 0.00 0.00 0.00 29 1009.7
20260503202148 60 20 4.0 7.0 0.00 0.00 0.00 29 1009.8
20260503201646 60 7 7.0 8.0 0.00 0.00 0.00 29 1009.8
20260503201143 59 251 7.0 9.0 0.00 0.00 0.00 29 1009.8
20260503200639 59 266 8.0 10.0 0.00 0.00 0.00 30 1009.6
20260503200135 59 312 17.0 23.0 0.00 0.00 0.00 29 1010.0
20260503195633 58 41 2.0 3.0 0.00 0.00 0.00 31 1010.0
20260503195129 59 350 5.0 9.0 0.00 0.00 0.00 30 1010.0
20260503194627 58 318 8.0 11.0 0.00 0.00 0.00 31 1010.0
20260503194122 59 220 7.0 14.0 0.00 0.00 0.00 31 1010.0
20260503193619 59 7 4.0 4.0 0.00 0.00 0.00 33 1010.1